Weather History for Jonesboro, AR

Change the Weather History Date:

Sunday, September 29, 2013

  Actual Average Record
Temperature  
Mean Temperature 72 °F 67 °F  
Max Temperature 74 °F 79 °F 100 °F (1953)
Min Temperature 69 °F 55 °F 37 °F (1896)
Degree Days  
Heating Degree Days 0 2  
Month to date heating degree days 0 16  
Since 1 July heating degree days 0 16  
Cooling Degree Days 7 4  
Month to date cooling degree days 360 221  
Year to date cooling degree days 1960 1767  
Growing Degree Days 21 (Base 50)    
Moisture  
Dew Point 65 °F    
Average Humidity 81    
Maximum Humidity 97    
Minimum Humidity 64    
Precipitation  
Precipitation 0.09 in 0.14 in 2.51 in (1944)
Month to date precipitation 1.28 2.92  
Year to date precipitation 38.73 34.03  
Snow  
Snow 0.00 in 0.00 in 0.00 in (2002)
Month to date snowfall 0.0 0.0  
Since 1 July snowfall 0.0 0.0  
Since 1 September snowfall 0.0 0.0  
Snow Depth 0.00 in    
Sea Level Pressure  
Sea Level Pressure 29.98 in    
Wind  
Wind Speed 4 mph (SE)    
Max Wind Speed 13 mph    
Max Gust Speed 22 mph    
Visibility 7 miles    
Events Rain    
T = Trace of Precipitation, MM = Missing Value Source: NWS Daily Summary

Daily Weather History Graph

Daily Weather History Graph

Search for Another Location

Airport:

Trip Planner

Search our weather history database for the weather conditions in past years. The results will help you decide how hot, cold, wet, or windy it might be!

Date:

Astronomy

Sep. 29, 2013 Rise Set
Actual Time 6:56 AM CDT 6:48 PM CDT
Civil Twilight 6:30 AM CDT 7:14 PM CDT
Nautical Twilight 6:01 AM CDT 7:43 PM CDT
Astronomical Twilight 5:31 AM CDT 8:13 PM CDT
Moon 1:46 AM CDT (9/29) 3:37 PM CDT (9/29)
Length of Visible Light 12h 43m
Length of Day
11h 52m
Waning Crescent, 27% of the Moon is Illuminated
Sep 29
Waning Crescent
Oct 4
New
Oct 11
First Quarter
Oct 18
Full
Oct 26
Last Quarter

Hourly Weather History & Observations

Time (CDT) Temp. Dew Point Humidity Pressure Visibility Wind Dir Wind Speed Gust Speed Precip Events Conditions
12:53 AM 73.0 °F 60.1 °F 64% 29.99 in 10.0 mi South 8.1 mph - N/A   Scattered Clouds
1:53 AM 72.0 °F 61.0 °F 68% 30.01 in 10.0 mi South 4.6 mph - 0.00 in Rain Light Rain
2:53 AM 70.0 °F 63.0 °F 78% 30.00 in 10.0 mi South 5.8 mph - 0.01 in   Overcast
3:53 AM 69.1 °F 63.0 °F 81% 30.00 in 10.0 mi South 3.5 mph - 0.00 in Rain Light Rain
4:53 AM 69.1 °F 64.0 °F 84% 29.99 in 10.0 mi SE 4.6 mph - 0.03 in   Overcast
5:53 AM 69.1 °F 64.0 °F 84% 30.00 in 10.0 mi South 5.8 mph - 0.00 in Rain Light Rain
6:53 AM 69.1 °F 64.0 °F 84% 30.01 in 10.0 mi South 3.5 mph - 0.01 in   Overcast
7:53 AM 70.0 °F 64.0 °F 81% 30.00 in 10.0 mi South 5.8 mph - N/A   Overcast
8:53 AM 69.1 °F 64.0 °F 84% 30.00 in 10.0 mi South 6.9 mph - N/A   Overcast
9:15 AM 69.8 °F 64.4 °F 83% 30.01 in 10.0 mi South 8.1 mph - N/A   Overcast
9:23 AM 69.8 °F 64.4 °F 83% 30.01 in 10.0 mi South 11.5 mph - N/A   Overcast
9:53 AM 69.1 °F 64.0 °F 84% 30.01 in 10.0 mi South 6.9 mph - N/A   Overcast
10:16 AM 69.8 °F 64.4 °F 83% 30.03 in 10.0 mi South 8.1 mph - N/A   Overcast
10:45 AM 69.8 °F 64.4 °F 83% 30.02 in 10.0 mi South 5.8 mph - 0.00 in   Overcast
10:53 AM 69.1 °F 64.0 °F 84% 30.02 in 4.0 mi SSE 4.6 mph - 0.00 in Rain Light Rain
11:30 AM 69.8 °F 64.4 °F 83% 30.02 in 6.0 mi SSE 3.5 mph - 0.01 in Rain Light Rain
11:53 AM 70.0 °F 64.9 °F 84% 30.01 in 10.0 mi SSE 5.8 mph - 0.02 in   Overcast
12:53 PM 71.1 °F 66.0 °F 84% 30.00 in 10.0 mi South 4.6 mph - N/A   Overcast
1:53 PM 72.0 °F 66.0 °F 81% 29.97 in 10.0 mi Calm Calm - N/A   Overcast
2:53 PM 73.0 °F 66.0 °F 79% 29.96 in 10.0 mi Calm Calm - N/A   Overcast
3:53 PM 73.0 °F 66.9 °F 81% 29.95 in 10.0 mi NE 3.5 mph - N/A   Overcast
4:53 PM 73.0 °F 66.0 °F 79% 29.95 in 10.0 mi East 5.8 mph - N/A   Overcast
5:53 PM 73.0 °F 66.9 °F 81% 29.95 in 10.0 mi ESE 4.6 mph - N/A   Overcast
6:40 PM 71.6 °F 68.0 °F 88% 29.96 in 2.5 mi ESE 5.8 mph - N/A   Overcast
6:46 PM 71.6 °F 68.0 °F 88% 29.96 in 1.8 mi East 4.6 mph - N/A   Overcast
6:53 PM 71.1 °F 68.0 °F 90% 29.96 in 1.8 mi East 5.8 mph - N/A   Overcast
7:03 PM 69.8 °F 66.2 °F 88% 29.97 in 1.8 mi East 4.6 mph - N/A   Overcast
7:11 PM 69.8 °F 66.2 °F 88% 29.97 in 2.0 mi East 4.6 mph - N/A   Overcast
7:33 PM 69.8 °F 68.0 °F 94% 29.97 in 2.5 mi East 4.6 mph - N/A   Overcast
7:48 PM 69.8 °F 68.0 °F 94% 29.97 in 2.0 mi East 4.6 mph - N/A   Overcast
7:53 PM 70.0 °F 68.0 °F 93% 29.97 in 2.0 mi East 6.9 mph - N/A   Overcast
8:33 PM 69.8 °F 66.2 °F 88% 29.98 in 1.8 mi East 5.8 mph - 0.01 in   Overcast
8:53 PM 70.0 °F 66.9 °F 90% 29.97 in 1.5 mi East 4.6 mph - 0.01 in   Overcast
9:53 PM 70.0 °F 66.9 °F 90% 29.96 in 1.5 mi Calm Calm - N/A   Overcast
10:53 PM 70.0 °F 66.9 °F 90% 29.96 in 1.8 mi ESE 5.8 mph - N/A   Overcast
11:35 PM 69.8 °F 66.2 °F 88% 29.96 in 2.0 mi ESE 6.9 mph - 0.01 in   Overcast
11:49 PM 69.8 °F 66.2 °F 88% 29.96 in 3.0 mi ESE 6.9 mph - 0.01 in   Overcast
11:53 PM 69.1 °F 66.9 °F 93% 29.95 in 3.0 mi ESE 5.8 mph - 0.01 in   Overcast